This is the latest recevied weather packets stored in our database for station/object dl1wer-13. If no packets are shown the sender has not sent any weather packets the latest 10 day(s).
| Time | Temp. | Humidity | Pressure | Rain* | Wind** | Luminosity | Snow |
|---|---|---|---|---|---|---|---|
| 1777518616 | 5° C | 52% | 1050.2 hPa | 0 mm | - | - | - |
| 1777518017 | 5.56° C | 52% | 1050 hPa | 0 mm | - | - | - |
| 1777517416 | 5.56° C | 52% | 1050.2 hPa | 0 mm | - | - | - |
| 1777516817 | 5.56° C | 52% | 1050.2 hPa | 0 mm | - | - | - |
| 1777516217 | 5.56° C | 52% | 1050.4 hPa | 0 mm | - | - | - |
| 1777515617 | 6.11° C | 52% | 1050.3 hPa | 0 mm | - | - | - |
| 1777515016 | 6.11° C | 52% | 1049.9 hPa | 0 mm | - | - | - |
| 1777514418 | 6.11° C | 52% | 1050 hPa | 0 mm | - | - | - |
| 1777513816 | 6.11° C | 52% | 1049.9 hPa | 0 mm | - | - | - |
| 1777513216 | 6.67° C | 52% | 1050.1 hPa | 0 mm | - | - | - |
| 1777512617 | 6.67° C | 52% | 1049.8 hPa | 0 mm | - | - | - |
| 1777512017 | 6.67° C | 52% | 1049.7 hPa | 0 mm | - | - | - |
| 1777511417 | 6.67° C | 52% | 1049.9 hPa | 0 mm | - | - | - |
| 1777510817 | 6.67° C | 52% | 1049.5 hPa | 0 mm | - | - | - |
| 1777510216 | 7.22° C | 52% | 1049.7 hPa | 0 mm | - | - | - |
| 1777509616 | 7.22° C | 51% | 1049.6 hPa | 0 mm | - | - | - |
| 1777509017 | 7.22° C | 51% | 1049.7 hPa | 0 mm | - | - | - |
| 1777508416 | 7.78° C | 44% | 1049.5 hPa | 0 mm | - | - | - |
| 1777507817 | 7.78° C | 43% | 1049.7 hPa | 0 mm | - | - | - |
| 1777507217 | 7.78° C | 42% | 1049.6 hPa | 0 mm | - | - | - |
| 1777506617 | 8.33° C | 41% | 1049.4 hPa | 0 mm | - | - | - |
| 1777506017 | 7.78° C | 41% | 1049.7 hPa | 0 mm | - | - | - |
| 1777505418 | 7.78° C | 40% | 1049.8 hPa | 0 mm | - | - | - |
| 1777504816 | 8.33° C | 40% | 1049.8 hPa | 0 mm | - | - | - |
| 1777504217 | 8.33° C | 40% | 1049.6 hPa | 0 mm | - | - | - |
* Rain latest hour (hover to see other rain measurements)
** Current wind speed in m/s (hover to see current wind gust speed)